#timestamp,LO_Frequency,Hit,StdDev 
1512504015.6,286046996.0,N
1512504035.4,286046994.8,N
1512504055.2,286046991.3,N
1512504075.1,286046991.6,N
1512504076.0,286046991.6,N
1512504095.8,286046988.4,N
1512504115.7,286046987.9,N
1512504135.5,286046992.4,N
1512504155.3,286046995.7,N
1512504175.2,286046994.7,N
1512504195.0,286046994.5,N
1512504195.9,286046994.5,N
1512504215.7,286046991.7,N
1512504235.6,286046989.5,N
1512504255.4,286046989.9,N
1512504275.3,286046988.9,N
1512504295.1,286046987.5,Y
1512504315.8,286046995.6,P
1512504335.7,286046991.8,P
1512504355.5,286046995.7,N
1512504375.4,286046995.7,N
1512504395.2,286046993.9,Y
1512504415.0,286047001.8,P
1512504415.9,286047001.8,N
1512504435.8,286047006.8,N
1512504455.6,286047008.1,N
1512504475.4,286047011.2,N
1512504495.3,286047010.7,N
1512504515.1,286047003.4,N
1512504535.9,286047005.2,N
1512504555.7,286047002.8,N
1512504575.5,286046998.2,N
1512504595.4,286046999.4,N
1512504615.2,286047001.4,N
1512504635.0,286047004.5,N
1512504635.9,286047004.5,N
1512504655.8,286047001.7,N
1512504675.6,286047003.4,N
1512504695.5,286047004.5,N
1512504715.3,286047004.5,N
1512504735.1,286047006.1,N
1512504755.9,286047011.6,Y
1512504775.7,286047007.4,P
1512504795.6,286047003.7,N
1512504815.4,286047000.1,N
1512504835.2,286047001.0,N
1512504855.1,286046996.9,N
1512504856.0,286046996.9,N
1512504875.8,286047002.8,N
1512504895.6,286046998.6,N
1512504915.5,286047005.8,N
1512504935.3,286047003.0,N
1512504955.2,286047002.0,N
1512504975.9,286046998.4,N
1512504995.7,286046998.6,N
1512505015.6,286046998.3,N
1512505035.4,286046999.8,N
1512505055.2,286047000.9,N
1512505075.1,286046999.2,N
1512505076.0,286046999.2,N
1512505095.8,286046997.0,N
1512505115.7,286047000.5,N
1512505135.5,286047003.3,N
1512505155.3,286047002.4,N
1512505175.2,286047002.8,N
1512505195.0,286047001.7,N
1512505195.9,286047001.7,N
1512505215.7,286046998.8,N
1512505235.6,286047001.0,N
1512505255.4,286046999.6,N
1512505275.3,286046997.0,N
1512505295.1,286047002.3,N
1512505296.0,286047002.3,N
1512505315.8,286047004.4,N
1512505335.7,286047002.4,N
1512505355.5,286046996.6,N
1512505375.4,286047002.6,N
1512505395.2,286047005.8,N
1512505415.0,286047004.3,N
1512505415.9,286047004.3,N
1512505435.8,286047008.7,Y
1512505455.6,286047004.7,P
1512505475.4,286047002.6,N
1512505495.3,286047003.9,N
1512505515.1,286047005.0,Y
1512505535.9,286047003.5,P
1512505555.7,286047003.8,P
1512505575.5,286047005.5,P
1512505595.4,286047003.7,Y
1512505615.2,286046999.7,P
1512505635.1,286047005.3,N
1512505636.0,286047005.3,N
1512505655.8,286047001.0,N
1512505675.6,286046996.8,N
1512505695.5,286046997.3,N
1512505715.3,286046995.6,N
1512505735.1,286046991.7,N
1512505755.9,286046996.0,N
1512505775.7,286046998.7,N
1512505795.6,286046997.1,N
1512505815.4,286046996.3,N
1512505835.2,286046994.9,N
1512505855.1,286047000.0,N
1512505856.0,286047000.0,N
1512505875.8,286047003.3,N
1512505895.6,286046998.3,N
1512505915.5,286047002.3,N
1512505935.3,286046998.6,N
1512505955.2,286046998.2,N
1512505975.9,286046994.2,N
1512505995.7,286046995.1,N
1512506015.6,286046994.9,N
1512506035.4,286047002.3,N
1512506055.3,286046999.6,N
1512506075.1,286047004.3,N
1512506076.0,286047004.3,N
1512506095.8,286047003.0,N
1512506115.7,286047003.9,N
1512506135.5,286047005.5,N
1512506155.3,286047003.6,N
1512506175.2,286047005.2,N
1512506195.0,286047004.4,N
1512506195.9,286047004.4,N
1512506215.8,286046999.8,N
1512506235.6,286047001.9,N
1512506255.4,286047004.7,N
1512506275.3,286047000.1,N
1512506295.1,286046995.3,N
1512506315.8,286047004.4,N
1512506335.7,286047002.9,N
1512506355.5,286047004.5,N
1512506375.4,286047003.3,N
1512506395.2,286047008.0,N
1512506415.0,286047006.9,N
1512506415.9,286047006.9,N
1512506435.8,286047004.8,N
1512506455.6,286047007.6,N
1512506475.4,286047007.5,N
1512506495.3,286047001.8,N
1512506515.1,286047001.4,N
1512506535.9,286047005.3,N
1512506555.7,286047007.6,N
1512506575.5,286047004.5,N
1512506595.4,286047004.0,N
1512506615.2,286047000.8,N
1512506635.0,286046998.4,N
1512506636.0,286046998.4,N
1512506655.8,286046995.9,N
1512506675.6,286046996.9,N
1512506695.5,286046997.5,N
1512506715.3,286046997.5,N
1512506735.1,286047000.5,N
1512506755.9,286046997.0,N
1512506775.7,286047000.0,N
1512506795.5,286047003.3,N
1512506815.4,286047004.9,N
1512506835.2,286047006.0,N
1512506855.1,286046999.9,N
1512506856.0,286046999.9,N
1512506875.8,286047000.7,N
1512506895.6,286046998.1,N
1512506915.5,286046993.9,N
1512506935.3,286046994.9,N
1512506955.2,286046999.1,N
1512506975.9,286046999.5,N
1512506995.7,286047002.4,N
1512507015.6,286046998.1,N
1512507035.4,286047007.2,N
1512507055.2,286047008.5,N
1512507075.1,286047006.7,N
1512507076.0,286047006.7,N
1512507095.8,286047006.2,N
1512507115.7,286047002.0,N
1512507135.5,286046998.8,N
1512507155.3,286047000.1,N
1512507175.2,286047002.0,N
1512507195.0,286047003.8,N
1512507195.9,286047003.8,N
1512507215.7,286046999.9,N
1512507235.6,286047000.8,N
1512507255.4,286046998.4,N
1512507275.3,286047001.4,N
1512507295.1,286046999.2,N
1512507296.0,286046999.2,N
1512507315.8,286046999.0,N
1512507335.7,286047001.9,N
1512507355.5,286047005.8,N
1512507375.4,286047007.4,N
1512507395.2,286047005.0,N
1512507415.0,286047004.7,N
1512507415.9,286047004.7,N
1512507435.8,286047003.4,N
1512507455.6,286047004.3,N
1512507475.4,286047004.1,N
1512507495.3,286047003.8,N
1512507515.1,286047003.6,N
1512507535.9,286047004.2,N
1512507555.7,286047001.6,N
1512507575.5,286047000.2,N
1512507595.4,286047004.4,N
